This is the latest recevied weather packets stored in our database for station/object AD7ZD. If no packets are shown the sender has not sent any weather packets the latest 10 day(s).
| Time | Temp. | Humidity | Pressure | Rain* | Wind** | Luminosity | Snow |
|---|---|---|---|---|---|---|---|
| 1777669815 | 21.67° C | 16% | 1015.2 hPa | 0 mm | - | 701 W/m² | - |
| 1777669510 | 21.67° C | 15% | 1015.1 hPa | 0 mm | - | 778 W/m² | - |
| 1777669207 | 21.11° C | 15% | 1015.3 hPa | 0 mm | - | 711 W/m² | - |
| 1777668904 | 21.11° C | 16% | 1015.5 hPa | 0 mm | - | 740 W/m² | - |
| 1777668602 | 21.11° C | 16% | 1015.3 hPa | 0 mm | - | 724 W/m² | - |
| 1777668297 | 22.22° C | 15% | 1015.4 hPa | 0 mm | - | 634 W/m² | - |
| 1777667994 | 21.11° C | 16% | 1015.7 hPa | 0 mm | - | 681 W/m² | - |
| 1777667691 | 20.56° C | 17% | 1015.7 hPa | 0 mm | - | 728 W/m² | - |
| 1777667389 | 21.11° C | 16% | 1015.4 hPa | 0 mm | - | 741 W/m² | - |
| 1777667085 | 20.56° C | 16% | 1015.5 hPa | 0 mm | - | 696 W/m² | - |
| 1777666781 | 21.11° C | 17% | 1015.5 hPa | 0 mm | - | 760 W/m² | - |
| 1777666478 | 20.56° C | 17% | 1015.9 hPa | 0 mm | - | 777 W/m² | - |
| 1777666175 | 20.56° C | 17% | 1016 hPa | 0 mm | - | 783 W/m² | - |
| 1777665873 | 21.11° C | 18% | 1015.8 hPa | 0 mm | - | 750 W/m² | - |
| 1777665570 | 20.56° C | 17% | 1015.7 hPa | 0 mm | - | 793 W/m² | - |
| 1777665266 | 20.56° C | 17% | 1015.8 hPa | 0 mm | - | 772 W/m² | - |
| 1777664962 | 20.56° C | 17% | 1015.8 hPa | 0 mm | - | 760 W/m² | - |
| 1777664658 | 21.11° C | 16% | 1016 hPa | 0 mm | - | 719 W/m² | - |
| 1777664354 | 20.56° C | 17% | 1016 hPa | 0 mm | - | 711 W/m² | - |
| 1777664053 | 21.67° C | 18% | 1015.9 hPa | 0 mm | - | 722 W/m² | - |
| 1777663750 | 20° C | 19% | 1016.1 hPa | 0 mm | - | 779 W/m² | - |
| 1777663447 | 20° C | 19% | 1016.4 hPa | 0 mm | - | 818 W/m² | - |
| 1777663144 | 20° C | 19% | 1016.3 hPa | 0 mm | - | 825 W/m² | - |
| 1777662841 | 19.44° C | 19% | 1016.2 hPa | 0 mm | - | 795 W/m² | - |
| 1777662538 | 20° C | 19% | 1016.6 hPa | 0 mm | - | 785 W/m² | - |
* Rain latest hour (hover to see other rain measurements)
** Current wind speed in m/s (hover to see current wind gust speed)